This is the latest recevied weather packets stored in our database for station/object VR2OT-10. If no packets are shown the sender has not sent any weather packets the latest 10 day(s).
| Time | Temp. | Humidity | Pressure | Rain* | Wind** | Luminosity | Snow |
|---|---|---|---|---|---|---|---|
| 1777510038 | 20.56° C | 66% | 1015.9 hPa | - | 3.13 m/s, 315° | - | - |
| 1777509139 | 20° C | 65% | 1015.5 hPa | - | 4.02 m/s, 315° | - | - |
| 1777505538 | 20° C | 67% | 1015.2 hPa | - | 3.13 m/s, 315° | - | - |
| 1777503739 | 20° C | 66% | 1014.5 hPa | - | 3.58 m/s, 315° | - | - |
| 1777500137 | 20° C | 64% | 1013.5 hPa | - | 4.92 m/s, 315° | - | - |
| 1777499238 | 20° C | 63% | 1013.6 hPa | - | 4.92 m/s, 315° | - | - |
| 1777498339 | 20° C | 64% | 1013.4 hPa | - | 4.92 m/s, 315° | - | - |
| 1777497438 | 20° C | 63% | 1013.3 hPa | - | 4.02 m/s, 315° | - | - |
| 1777496538 | 20° C | 64% | 1013.2 hPa | - | 5.81 m/s, 315° | - | - |
| 1777494738 | 20.56° C | 63% | 1013 hPa | - | 3.58 m/s, 315° | - | - |
| 1777493838 | 20.56° C | 63% | 1012.9 hPa | - | 3.13 m/s, 315° | - | - |
| 1777492939 | 20.56° C | 63% | 1012.9 hPa | - | 3.58 m/s, 315° | - | - |
| 1777492038 | 20.56° C | 62% | 1013 hPa | - | 5.81 m/s, 315° | - | - |
| 1777490237 | 20.56° C | 64% | 1012.9 hPa | - | 4.92 m/s, 315° | - | - |
| 1777485738 | 21.67° C | 63% | 1013.4 hPa | - | 4.92 m/s, 315° | - | - |
| 1777483038 | 21.67° C | 64% | 1013.5 hPa | - | 4.02 m/s, 0° | - | - |
| 1777479438 | 22.22° C | 68% | 1013.7 hPa | - | 4.02 m/s, 315° | - | - |
| 1777478538 | 22.22° C | 64% | 1014 hPa | - | 4.47 m/s, 315° | - | - |
| 1777477638 | 21.67° C | 67% | 1014 hPa | - | 4.02 m/s, 315° | - | - |
| 1777476739 | 21.67° C | 72% | 1014.1 hPa | - | 4.92 m/s, 315° | - | - |
| 1777475838 | 21.67° C | 70% | 1014.1 hPa | - | 3.58 m/s, 315° | - | - |
| 1777474038 | 22.22° C | 76% | 1013.8 hPa | - | 1.79 m/s, 315° | - | - |
| 1777473138 | 22.22° C | 78% | 1013.3 hPa | - | 3.13 m/s, 315° | - | - |
| 1777469539 | 21.67° C | 81% | 1012.8 hPa | - | 2.68 m/s, 45° | - | - |
| 1777468638 | 21.67° C | 82% | 1012.6 hPa | - | 3.13 m/s, 45° | - | - |
* Rain since midnight (hover to see other rain measurements)
** Current wind speed in m/s (hover to see current wind gust speed)